Погода в Литвинове

Чехия     50°35′47″N   13°36′43″E
темп.,
°C
ветер,
м/с
пор.,
м/с
влажн.,
%
обл.,
%
осадки,
мм/ч
давл.,
гПа
погр.,
м
29 июня, ср
ср2923:00+17с2369100 0.0 101949
02:00+17св2270100 0.0 101850
05:00+16с1183100 0.3 101737
08:00+17ссв1290100 1.3 1016125
11:00+20в3578100 0.4 1016721
14:00+21всв3578100 0.5 1015757
17:00+23ссв1271100 0.1 1013705
20:00+19вюв4793100 5.9 1013271
30 июня, чт
чт3023:00+17ссз1196100 1.0 101346
02:00+16ююз0198100 1.1 101331
05:00+15з1198100 0.1 101318
08:00+18ю118959 0.1 1013269
11:00+21ююз117896 0.3 1013730
14:00+24ю126699 0.4 10121082
17:00+25юв226355 0.0 1012805
20:00+24всв11710 0.1 101113
1 июля, пт
пт123:00+20с11832 0.0 101215
02:00+18сз1187100 0.3 101212
05:00+19з1187100 0.6 101111
08:00+18сз3694100 6.3 1013273
11:00+17сз489291 3.9 1015418
14:00+17сз6881100 4.1 1017691
17:00+14зсз51183100 0.2 1019758
20:00+13сз3882100 0.3 1021688
2 июля, сб
сб223:00+13зсз278091 0.0 1023479
02:00+10сз229093 0.0 102536
05:00+10зсз21900 0.0 102519
08:00+15юз11690 0.0 1025273
11:00+20вюв23471 0.0 10251578
14:00+22юв334110 0.0 10241882
17:00+22юв434112 0.0 10231815
20:00+20ююв23600 0.0 1023121
3 июля, вс
вс323:00+15с11730 0.0 102312
02:00+13юз01770 0.0 102410
05:00+12сз00820 0.0 102310
08:00+17юв12685 0.0 1023244
11:00+21юв225582 0.0 1022793
14:00+24юв2243100 0.0 10201361
17:00+25юв2343100 0.0 10191365
20:00+21в246488 0.0 101979